owner,sensor,date,latitude,longitude,vertical_datum,wind_speed,wind_to_direction,wind_speed_of_gust,qcFlag 
WAVCIS,ioos:station:WAVCIS:CSI03:3,2017-01-01T00:00:00Z,29.4412,-92.0613,10.0,4.57,277.0,,'11111222,11111222,99999999' 
WAVCIS,ioos:station:WAVCIS:CSI03:3,2017-01-01T01:00:00Z,29.4412,-92.0613,10.0,5.856,290.0,,'11111222,11111222,99999999' 
WAVCIS,ioos:station:WAVCIS:CSI03:3,2017-01-01T02:00:00Z,29.4412,-92.0613,10.0,3.992,290.0,,'11111222,11111222,99999999' 
WAVCIS,ioos:station:WAVCIS:CSI03:3,2017-01-01T03:00:00Z,29.4412,-92.0613,10.0,1.488,307.0,,'11111222,11111222,99999999' 
WAVCIS,ioos:station:WAVCIS:CSI03:3,2017-01-01T04:00:00Z,29.4412,-92.0613,10.0,1.65,284.0,,'11111222,11111222,99999999' 
WAVCIS,ioos:station:WAVCIS:CSI03:3,2017-01-01T05:00:00Z,29.4412,-92.0613,10.0,1.265,331.0,,'11111222,11111222,99999999' 
WAVCIS,ioos:station:WAVCIS:CSI03:3,2017-01-01T06:00:00Z,29.4412,-92.0613,10.0,1.839,291.0,,'11111222,11111222,99999999' 
WAVCIS,ioos:station:WAVCIS:CSI03:3,2017-01-01T07:00:00Z,29.4412,-92.0613,10.0,4.386,286.0,,'11111222,11111222,99999999' 
WAVCIS,ioos:station:WAVCIS:CSI03:3,2017-01-01T08:00:00Z,29.4412,-92.0613,10.0,1.938,289.0,,'11111222,11111222,99999999' 
WAVCIS,ioos:station:WAVCIS:CSI03:3,2017-01-01T09:00:00Z,29.4412,-92.0613,10.0,4.198,338.0,,'11111222,11111222,99999999' 
WAVCIS,ioos:station:WAVCIS:CSI03:3,2017-01-01T10:00:00Z,29.4412,-92.0613,10.0,2.059,327.0,,'11111222,11111222,99999999' 
WAVCIS,ioos:station:WAVCIS:CSI03:3,2017-01-01T11:00:00Z,29.4412,-92.0613,10.0,3.116,282.0,,'11111222,11111222,99999999' 
WAVCIS,ioos:station:WAVCIS:CSI03:3,2017-01-01T12:00:00Z,29.4412,-92.0613,10.0,2.789,288.0,,'11111222,11111222,99999999' 
WAVCIS,ioos:station:WAVCIS:CSI03:3,2017-01-01T13:00:00Z,29.4412,-92.0613,10.0,2.395,279.0,,'11111222,11111222,99999999' 
WAVCIS,ioos:station:WAVCIS:CSI03:3,2017-01-01T14:00:00Z,29.4412,-92.0613,10.0,3.613,286.0,,'11111222,11111222,99999999' 
WAVCIS,ioos:station:WAVCIS:CSI03:3,2017-01-01T15:00:00Z,29.4412,-92.0613,10.0,3.487,287.0,,'11111222,11111222,99999999' 
WAVCIS,ioos:station:WAVCIS:CSI03:3,2017-01-01T16:00:00Z,29.4412,-92.0613,10.0,2.731,310.0,,'11111222,11111222,99999999' 
WAVCIS,ioos:station:WAVCIS:CSI03:3,2017-01-01T17:00:00Z,29.4412,-92.0613,10.0,1.265,279.0,,'11111222,11111222,99999999' 
WAVCIS,ioos:station:WAVCIS:CSI03:3,2017-01-01T18:00:00Z,29.4412,-92.0613,10.0,4.793,294.0,,'11111222,11111222,99999999' 
WAVCIS,ioos:station:WAVCIS:CSI03:3,2017-01-01T19:00:00Z,29.4412,-92.0613,10.0,2.823,315.0,,'11111222,11111222,99999999' 
WAVCIS,ioos:station:WAVCIS:CSI03:3,2017-01-01T20:00:00Z,29.4412,-92.0613,10.0,2.806,341.0,,'11111222,11111222,99999999' 
WAVCIS,ioos:station:WAVCIS:CSI03:3,2017-01-01T21:00:00Z,29.4412,-92.0613,10.0,2.636,283.0,,'11111222,11111222,99999999' 
WAVCIS,ioos:station:WAVCIS:CSI03:3,2017-01-01T22:00:00Z,29.4412,-92.0613,10.0,1.259,282.0,,'11111222,11111222,99999999' 
WAVCIS,ioos:station:WAVCIS:CSI03:3,2017-01-01T23:00:00Z,29.4412,-92.0613,10.0,9.9,249.0,,'11111222,11111222,99999999' 
WAVCIS,ioos:station:WAVCIS:CSI03:3,2017-01-02T00:00:00Z,29.4412,-92.0613,10.0,1.942,182.0,,'11111222,11111222,99999999' 
WAVCIS,ioos:station:WAVCIS:CSI03:3,2017-01-02T01:00:00Z,29.4412,-92.0613,10.0,6.942,247.0,,'11111222,11111222,99999999' 
WAVCIS,ioos:station:WAVCIS:CSI03:3,2017-01-02T02:00:00Z,29.4412,-92.0613,10.0,5.977,254.0,,'11111222,11111222,99999999' 
WAVCIS,ioos:station:WAVCIS:CSI03:3,2017-01-02T03:00:00Z,29.4412,-92.0613,10.0,5.51,254.0,,'11111222,11111222,99999999' 
WAVCIS,ioos:station:WAVCIS:CSI03:3,2017-01-02T04:00:00Z,29.4412,-92.0613,10.0,6.642,247.0,,'11111222,11111222,99999999' 
WAVCIS,ioos:station:WAVCIS:CSI03:3,2017-01-02T05:00:00Z,29.4412,-92.0613,10.0,7.69,238.0,,'11111222,11111222,99999999' 
WAVCIS,ioos:station:WAVCIS:CSI03:3,2017-01-02T06:00:00Z,29.4412,-92.0613,10.0,6.636,226.0,,'11111222,11111222,99999999' 
WAVCIS,ioos:station:WAVCIS:CSI03:3,2017-01-02T07:00:00Z,29.4412,-92.0613,10.0,8.1,236.0,,'11111222,11111222,99999999' 
WAVCIS,ioos:station:WAVCIS:CSI03:3,2017-01-02T08:00:00Z,29.4412,-92.0613,10.0,7.56,236.0,,'11111222,11111222,99999999' 
WAVCIS,ioos:station:WAVCIS:CSI03:3,2017-01-02T09:00:00Z,29.4412,-92.0613,10.0,6.303,233.0,,'11111222,11111222,99999999' 
WAVCIS,ioos:station:WAVCIS:CSI03:3,2017-01-02T10:00:00Z,29.4412,-92.0613,10.0,5.61,231.0,,'11111222,11111222,99999999' 
WAVCIS,ioos:station:WAVCIS:CSI03:3,2017-01-02T11:00:00Z,29.4412,-92.0613,10.0,5.272,227.0,,'11111222,11111222,99999999' 
WAVCIS,ioos:station:WAVCIS:CSI03:3,2017-01-02T12:00:00Z,29.4412,-92.0613,10.0,5.531,236.0,,'11111222,11111222,99999999' 
WAVCIS,ioos:station:WAVCIS:CSI03:3,2017-01-02T13:00:00Z,29.4412,-92.0613,10.0,7.41,234.0,,'11111222,11111222,99999999' 
WAVCIS,ioos:station:WAVCIS:CSI03:3,2017-01-02T14:00:00Z,29.4412,-92.0613,10.0,7.89,234.0,,'11111222,11111222,99999999' 
WAVCIS,ioos:station:WAVCIS:CSI03:3,2017-01-02T15:00:00Z,29.4412,-92.0613,10.0,7.55,226.0,,'11111222,11111222,99999999' 
WAVCIS,ioos:station:WAVCIS:CSI03:3,2017-01-02T16:00:00Z,29.4412,-92.0613,10.0,8.14,239.0,,'11111222,11111222,99999999' 
WAVCIS,ioos:station:WAVCIS:CSI03:3,2017-01-02T17:00:00Z,29.4412,-92.0613,10.0,8.81,257.0,,'11111222,11111222,99999999' 
WAVCIS,ioos:station:WAVCIS:CSI03:3,2017-01-02T18:00:00Z,29.4412,-92.0613,10.0,3.94,271.0,,'11111222,11111222,99999999' 
WAVCIS,ioos:station:WAVCIS:CSI03:3,2017-01-02T19:00:00Z,29.4412,-92.0613,10.0,6.877,290.0,,'11111222,11111222,99999999' 
WAVCIS,ioos:station:WAVCIS:CSI03:3,2017-01-02T20:00:00Z,29.4412,-92.0613,10.0,4.112,313.0,,'11111222,11111222,99999999' 
WAVCIS,ioos:station:WAVCIS:CSI03:3,2017-01-02T21:00:00Z,29.4412,-92.0613,10.0,3.335,330.0,,'11111222,11111222,99999999' 
WAVCIS,ioos:station:WAVCIS:CSI03:3,2017-01-02T22:00:00Z,29.4412,-92.0613,10.0,4.725,355.0,,'11111222,11111222,99999999' 
WAVCIS,ioos:station:WAVCIS:CSI03:3,2017-01-02T23:00:00Z,29.4412,-92.0613,10.0,3.517,338.0,,'11111222,11111222,99999999' 
WAVCIS,ioos:station:WAVCIS:CSI03:3,2017-01-03T00:00:00Z,29.4412,-92.0613,10.0,0.349,336.0,,'11111222,11111222,99999999' 
WAVCIS,ioos:station:WAVCIS:CSI03:3,2017-01-03T01:00:00Z,29.4412,-92.0613,10.0,4.652,330.0,,'11111222,11111222,99999999' 
WAVCIS,ioos:station:WAVCIS:CSI03:3,2017-01-03T02:00:00Z,29.4412,-92.0613,10.0,4.77,329.0,,'11111222,11111222,99999999' 
WAVCIS,ioos:station:WAVCIS:CSI03:3,2017-01-03T03:00:00Z,29.4412,-92.0613,10.0,3.773,338.0,,'11111222,11111222,99999999' 
WAVCIS,ioos:station:WAVCIS:CSI03:3,2017-01-03T04:00:00Z,29.4412,-92.0613,10.0,4.142,351.0,,'11111222,11111222,99999999' 
WAVCIS,ioos:station:WAVCIS:CSI03:3,2017-01-03T05:00:00Z,29.4412,-92.0613,10.0,2.337,29.0,,'11111222,11111222,99999999' 
WAVCIS,ioos:station:WAVCIS:CSI03:3,2017-01-03T06:00:00Z,29.4412,-92.0613,10.0,1.981,33.0,,'11111222,11111222,99999999' 
WAVCIS,ioos:station:WAVCIS:CSI03:3,2017-01-03T07:00:00Z,29.4412,-92.0613,10.0,3.592,59.0,,'11111222,11111222,99999999' 
WAVCIS,ioos:station:WAVCIS:CSI03:3,2017-01-03T08:00:00Z,29.4412,-92.0613,10.0,1.792,41.0,,'11111222,11111222,99999999' 
WAVCIS,ioos:station:WAVCIS:CSI03:3,2017-01-03T09:00:00Z,29.4412,-92.0613,10.0,2.625,357.0,,'11111222,11111222,99999999' 
WAVCIS,ioos:station:WAVCIS:CSI03:3,2017-01-03T10:00:00Z,29.4412,-92.0613,10.0,3.347,16.0,,'11111222,11111222,99999999' 
WAVCIS,ioos:station:WAVCIS:CSI03:3,2017-01-03T11:00:00Z,29.4412,-92.0613,10.0,3.193,12.0,,'11111222,11111222,99999999' 
WAVCIS,ioos:station:WAVCIS:CSI03:3,2017-01-03T12:00:00Z,29.4412,-92.0613,10.0,0.497,351.0,,'11111222,11111222,99999999' 
WAVCIS,ioos:station:WAVCIS:CSI03:3,2017-01-03T13:00:00Z,29.4412,-92.0613,10.0,1.061,262.0,,'11111222,11111222,99999999' 
WAVCIS,ioos:station:WAVCIS:CSI03:3,2017-01-03T14:00:00Z,29.4412,-92.0613,10.0,0.204,310.0,,'11111222,11111222,99999999' 
WAVCIS,ioos:station:WAVCIS:CSI03:3,2017-01-03T15:00:00Z,29.4412,-92.0613,10.0,0.128,329.0,,'11111222,11111222,99999999' 
WAVCIS,ioos:station:WAVCIS:CSI03:3,2017-01-03T16:00:00Z,29.4412,-92.0613,10.0,4.055,331.0,,'11111222,11111222,99999999' 
WAVCIS,ioos:station:WAVCIS:CSI03:3,2017-01-03T17:00:00Z,29.4412,-92.0613,10.0,4.33,334.0,,'11111222,11111222,99999999' 
WAVCIS,ioos:station:WAVCIS:CSI03:3,2017-01-03T18:00:00Z,29.4412,-92.0613,10.0,0.128,338.0,,'11111222,11111222,99999999' 
WAVCIS,ioos:station:WAVCIS:CSI03:3,2017-01-03T19:00:00Z,29.4412,-92.0613,10.0,3.992,329.0,,'11111222,11111222,99999999' 
WAVCIS,ioos:station:WAVCIS:CSI03:3,2017-01-03T20:00:00Z,29.4412,-92.0613,10.0,4.915,334.0,,'11111222,11111222,99999999' 
WAVCIS,ioos:station:WAVCIS:CSI03:3,2017-01-03T21:00:00Z,29.4412,-92.0613,10.0,3.517,343.0,,'11111222,11111222,99999999' 
WAVCIS,ioos:station:WAVCIS:CSI03:3,2017-01-03T22:00:00Z,29.4412,-92.0613,10.0,4.686,337.0,,'11111222,11111222,99999999' 
WAVCIS,ioos:station:WAVCIS:CSI03:3,2017-01-03T23:00:00Z,29.4412,-92.0613,10.0,6.201,5.0,,'11111222,11111222,99999999' 
WAVCIS,ioos:station:WAVCIS:CSI03:3,2017-01-04T00:00:00Z,29.4412,-92.0613,10.0,4.12,352.0,,'11111222,11111222,99999999' 
WAVCIS,ioos:station:WAVCIS:CSI03:3,2017-01-04T01:00:00Z,29.4412,-92.0613,10.0,6.675,4.0,,'11111222,11111222,99999999' 
WAVCIS,ioos:station:WAVCIS:CSI03:3,2017-01-04T02:00:00Z,29.4412,-92.0613,10.0,6.466,9.0,,'11111222,11111222,99999999' 
WAVCIS,ioos:station:WAVCIS:CSI03:3,2017-01-04T03:00:00Z,29.4412,-92.0613,10.0,6.621,11.0,,'11111222,11111222,99999999' 
WAVCIS,ioos:station:WAVCIS:CSI03:3,2017-01-04T04:00:00Z,29.4412,-92.0613,10.0,6.174,50.0,,'11111222,11111222,99999999' 
WAVCIS,ioos:station:WAVCIS:CSI03:3,2017-01-04T05:00:00Z,29.4412,-92.0613,10.0,6.144,57.0,,'11111222,11111222,99999999' 
WAVCIS,ioos:station:WAVCIS:CSI03:3,2017-01-04T06:00:00Z,29.4412,-92.0613,10.0,9.27,69.0,,'11111222,11111222,99999999' 
WAVCIS,ioos:station:WAVCIS:CSI03:3,2017-01-04T07:00:00Z,29.4412,-92.0613,10.0,9.42,74.0,,'11111222,11111222,99999999' 
WAVCIS,ioos:station:WAVCIS:CSI03:3,2017-01-04T08:00:00Z,29.4412,-92.0613,10.0,9.54,77.0,,'11111222,11111222,99999999' 
WAVCIS,ioos:station:WAVCIS:CSI03:3,2017-01-04T09:00:00Z,29.4412,-92.0613,10.0,9.26,75.0,,'11111222,11111222,99999999' 
WAVCIS,ioos:station:WAVCIS:CSI03:3,2017-01-04T10:00:00Z,29.4412,-92.0613,10.0,7.5,82.0,,'11111222,11111222,99999999' 
WAVCIS,ioos:station:WAVCIS:CSI03:3,2017-01-04T11:00:00Z,29.4412,-92.0613,10.0,6.071,91.0,,'11111222,11111222,99999999' 
WAVCIS,ioos:station:WAVCIS:CSI03:3,2017-01-04T12:00:00Z,29.4412,-92.0613,10.0,5.076,90.0,,'11111222,11111222,99999999' 
WAVCIS,ioos:station:WAVCIS:CSI03:3,2017-01-04T13:00:00Z,29.4412,-92.0613,10.0,5.811,112.0,,'11111222,11111222,99999999' 
WAVCIS,ioos:station:WAVCIS:CSI03:3,2017-01-04T14:00:00Z,29.4412,-92.0613,10.0,6.238,96.0,,'11111222,11111222,99999999' 
WAVCIS,ioos:station:WAVCIS:CSI03:3,2017-01-04T15:00:00Z,29.4412,-92.0613,10.0,7.0,95.0,,'11111222,11111222,99999999' 
WAVCIS,ioos:station:WAVCIS:CSI03:3,2017-01-04T16:00:00Z,29.4412,-92.0613,10.0,6.146,94.0,,'11111222,11111222,99999999' 
WAVCIS,ioos:station:WAVCIS:CSI03:3,2017-01-04T17:00:00Z,29.4412,-92.0613,10.0,4.98,90.0,,'11111222,11111222,99999999' 
WAVCIS,ioos:station:WAVCIS:CSI03:3,2017-01-04T18:00:00Z,29.4412,-92.0613,10.0,4.977,102.0,,'11111222,11111222,99999999' 
WAVCIS,ioos:station:WAVCIS:CSI03:3,2017-01-04T19:00:00Z,29.4412,-92.0613,10.0,2.747,96.0,,'11111222,11111222,99999999' 
WAVCIS,ioos:station:WAVCIS:CSI03:3,2017-01-04T20:00:00Z,29.4412,-92.0613,10.0,4.675,100.0,,'11111222,11111222,99999999' 
WAVCIS,ioos:station:WAVCIS:CSI03:3,2017-01-04T21:00:00Z,29.4412,-92.0613,10.0,3.68,94.0,,'11111222,11111222,99999999' 
WAVCIS,ioos:station:WAVCIS:CSI03:3,2017-01-04T22:00:00Z,29.4412,-92.0613,10.0,3.624,97.0,,'11111222,11111222,99999999' 
WAVCIS,ioos:station:WAVCIS:CSI03:3,2017-01-04T23:00:00Z,29.4412,-92.0613,10.0,3.781,107.0,,'11111222,11111222,99999999' 
WAVCIS,ioos:station:WAVCIS:CSI03:3,2017-01-05T00:00:00Z,29.4412,-92.0613,10.0,4.208,92.0,,'11111222,11111222,99999999' 
WAVCIS,ioos:station:WAVCIS:CSI03:3,2017-01-05T01:00:00Z,29.4412,-92.0613,10.0,5.159,109.0,,'11111222,11111222,99999999' 
WAVCIS,ioos:station:WAVCIS:CSI03:3,2017-01-05T02:00:00Z,29.4412,-92.0613,10.0,5.111,133.0,,'11111222,11111222,99999999' 
WAVCIS,ioos:station:WAVCIS:CSI03:3,2017-01-05T03:00:00Z,29.4412,-92.0613,10.0,4.158,128.0,,'11111222,11111222,99999999' 
WAVCIS,ioos:station:WAVCIS:CSI03:3,2017-01-05T04:00:00Z,29.4412,-92.0613,10.0,4.21,155.0,,'11111222,11111222,99999999' 
WAVCIS,ioos:station:WAVCIS:CSI03:3,2017-01-05T05:00:00Z,29.4412,-92.0613,10.0,4.015,156.0,,'11111222,11111222,99999999' 
WAVCIS,ioos:station:WAVCIS:CSI03:3,2017-01-05T06:00:00Z,29.4412,-92.0613,10.0,4.175,203.0,,'11111222,11111222,99999999' 
WAVCIS,ioos:station:WAVCIS:CSI03:3,2017-01-05T07:00:00Z,29.4412,-92.0613,10.0,3.336,221.0,,'11111222,11111222,99999999' 
WAVCIS,ioos:station:WAVCIS:CSI03:3,2017-01-05T08:00:00Z,29.4412,-92.0613,10.0,3.514,238.0,,'11111222,11111222,99999999' 
WAVCIS,ioos:station:WAVCIS:CSI03:3,2017-01-05T09:00:00Z,29.4412,-92.0613,10.0,2.863,191.0,,'11111222,11111222,99999999' 
WAVCIS,ioos:station:WAVCIS:CSI03:3,2017-01-05T10:00:00Z,29.4412,-92.0613,10.0,4.248,170.0,,'11111222,11111222,99999999' 
WAVCIS,ioos:station:WAVCIS:CSI03:3,2017-01-05T11:00:00Z,29.4412,-92.0613,10.0,4.522,154.0,,'11111222,11111222,99999999' 
WAVCIS,ioos:station:WAVCIS:CSI03:3,2017-01-05T12:00:00Z,29.4412,-92.0613,10.0,4.224,184.0,,'11111222,11111222,99999999' 
WAVCIS,ioos:station:WAVCIS:CSI03:3,2017-01-05T13:00:00Z,29.4412,-92.0613,10.0,4.606,196.0,,'11111222,11111222,99999999' 
WAVCIS,ioos:station:WAVCIS:CSI03:3,2017-01-05T14:00:00Z,29.4412,-92.0613,10.0,4.637,208.0,,'11111222,11111222,99999999' 
WAVCIS,ioos:station:WAVCIS:CSI03:3,2017-01-05T15:00:00Z,29.4412,-92.0613,10.0,5.061,197.0,,'11111222,11111222,99999999' 
WAVCIS,ioos:station:WAVCIS:CSI03:3,2017-01-05T16:00:00Z,29.4412,-92.0613,10.0,4.911,197.0,,'11111222,11111222,99999999' 
WAVCIS,ioos:station:WAVCIS:CSI03:3,2017-01-05T17:00:00Z,29.4412,-92.0613,10.0,4.965,201.0,,'11111222,11111222,99999999' 
WAVCIS,ioos:station:WAVCIS:CSI03:3,2017-01-05T18:00:00Z,29.4412,-92.0613,10.0,4.129,214.0,,'11111222,11111222,99999999' 
WAVCIS,ioos:station:WAVCIS:CSI03:3,2017-01-05T19:00:00Z,29.4412,-92.0613,10.0,4.96,206.0,,'11111222,11111222,99999999' 
WAVCIS,ioos:station:WAVCIS:CSI03:3,2017-01-05T20:00:00Z,29.4412,-92.0613,10.0,4.451,222.0,,'11111222,11111222,99999999' 
WAVCIS,ioos:station:WAVCIS:CSI03:3,2017-01-05T21:00:00Z,29.4412,-92.0613,10.0,3.981,225.0,,'11111222,11111222,99999999' 
WAVCIS,ioos:station:WAVCIS:CSI03:3,2017-01-05T22:00:00Z,29.4412,-92.0613,10.0,3.767,223.0,,'11111222,11111222,99999999' 
WAVCIS,ioos:station:WAVCIS:CSI03:3,2017-01-05T23:00:00Z,29.4412,-92.0613,10.0,2.884,196.0,,'11111222,11111222,99999999' 
WAVCIS,ioos:station:WAVCIS:CSI03:3,2017-01-06T00:00:00Z,29.4412,-92.0613,10.0,4.659,229.0,,'11111222,11111222,99999999' 
WAVCIS,ioos:station:WAVCIS:CSI03:3,2017-01-06T01:00:00Z,29.4412,-92.0613,10.0,3.784,269.0,,'11111222,11111222,99999999' 
WAVCIS,ioos:station:WAVCIS:CSI03:3,2017-01-06T02:00:00Z,29.4412,-92.0613,10.0,8.25,101.0,,'11111222,11111222,99999999' 
WAVCIS,ioos:station:WAVCIS:CSI03:3,2017-01-06T03:00:00Z,29.4412,-92.0613,10.0,8.39,120.0,,'11111222,11111222,99999999' 
WAVCIS,ioos:station:WAVCIS:CSI03:3,2017-01-06T04:00:00Z,29.4412,-92.0613,10.0,8.1,128.0,,'11111222,11111222,99999999' 
WAVCIS,ioos:station:WAVCIS:CSI03:3,2017-01-06T05:00:00Z,29.4412,-92.0613,10.0,8.51,114.0,,'11111222,11111222,99999999' 
WAVCIS,ioos:station:WAVCIS:CSI03:3,2017-01-06T06:00:00Z,29.4412,-92.0613,10.0,8.89,111.0,,'11111222,11111222,99999999' 
WAVCIS,ioos:station:WAVCIS:CSI03:3,2017-01-06T07:00:00Z,29.4412,-92.0613,10.0,8.72,119.0,,'11111222,11111222,99999999' 
WAVCIS,ioos:station:WAVCIS:CSI03:3,2017-01-06T08:00:00Z,29.4412,-92.0613,10.0,9.88,115.0,,'11111222,11111222,99999999' 
WAVCIS,ioos:station:WAVCIS:CSI03:3,2017-01-06T09:00:00Z,29.4412,-92.0613,10.0,9.2,123.0,,'11111222,11111222,99999999' 
WAVCIS,ioos:station:WAVCIS:CSI03:3,2017-01-06T10:00:00Z,29.4412,-92.0613,10.0,9.77,126.0,,'11111222,11111222,99999999' 
WAVCIS,ioos:station:WAVCIS:CSI03:3,2017-01-06T11:00:00Z,29.4412,-92.0613,10.0,8.96,123.0,,'11111222,11111222,99999999' 
WAVCIS,ioos:station:WAVCIS:CSI03:3,2017-01-06T12:00:00Z,29.4412,-92.0613,10.0,9.16,113.0,,'11111222,11111222,99999999' 
WAVCIS,ioos:station:WAVCIS:CSI03:3,2017-01-06T13:00:00Z,29.4412,-92.0613,10.0,9.47,107.0,,'11111222,11111222,99999999' 
WAVCIS,ioos:station:WAVCIS:CSI03:3,2017-01-06T14:00:00Z,29.4412,-92.0613,10.0,11.47,109.0,,'11111222,11111222,99999999' 
WAVCIS,ioos:station:WAVCIS:CSI03:3,2017-01-06T15:00:00Z,29.4412,-92.0613,10.0,10.98,104.0,,'11111222,11111222,99999999' 
WAVCIS,ioos:station:WAVCIS:CSI03:3,2017-01-06T16:00:00Z,29.4412,-92.0613,10.0,9.78,120.0,,'11111222,11111222,99999999' 
WAVCIS,ioos:station:WAVCIS:CSI03:3,2017-01-06T17:00:00Z,29.4412,-92.0613,10.0,10.8,123.0,,'11111222,11111222,99999999' 
WAVCIS,ioos:station:WAVCIS:CSI03:3,2017-01-06T18:00:00Z,29.4412,-92.0613,10.0,8.83,119.0,,'11111222,11111222,99999999' 
WAVCIS,ioos:station:WAVCIS:CSI03:3,2017-01-06T19:00:00Z,29.4412,-92.0613,10.0,9.59,125.0,,'11111222,11111222,99999999' 
WAVCIS,ioos:station:WAVCIS:CSI03:3,2017-01-06T20:00:00Z,29.4412,-92.0613,10.0,9.38,117.0,,'11111222,11111222,99999999' 
WAVCIS,ioos:station:WAVCIS:CSI03:3,2017-01-06T21:00:00Z,29.4412,-92.0613,10.0,10.26,119.0,,'11111222,11111222,99999999' 
WAVCIS,ioos:station:WAVCIS:CSI03:3,2017-01-06T22:00:00Z,29.4412,-92.0613,10.0,10.67,98.0,,'11111222,11111222,99999999' 
WAVCIS,ioos:station:WAVCIS:CSI03:3,2017-01-06T23:00:00Z,29.4412,-92.0613,10.0,9.88,95.0,,'11111222,11111222,99999999' 
WAVCIS,ioos:station:WAVCIS:CSI03:3,2017-01-07T00:00:00Z,29.4412,-92.0613,10.0,11.78,103.0,,'11111222,11111222,99999999' 
WAVCIS,ioos:station:WAVCIS:CSI03:3,2017-01-07T01:00:00Z,29.4412,-92.0613,10.0,11.42,98.0,,'11111222,11111222,99999999' 
WAVCIS,ioos:station:WAVCIS:CSI03:3,2017-01-07T02:00:00Z,29.4412,-92.0613,10.0,12.34,99.0,,'11111222,11111222,99999999' 
WAVCIS,ioos:station:WAVCIS:CSI03:3,2017-01-07T03:00:00Z,29.4412,-92.0613,10.0,10.36,93.0,,'11111222,11111222,99999999' 
WAVCIS,ioos:station:WAVCIS:CSI03:3,2017-01-07T04:00:00Z,29.4412,-92.0613,10.0,10.29,90.0,,'11111222,11111222,99999999' 
WAVCIS,ioos:station:WAVCIS:CSI03:3,2017-01-07T05:00:00Z,29.4412,-92.0613,10.0,12.82,100.0,,'11111222,11111222,99999999' 
WAVCIS,ioos:station:WAVCIS:CSI03:3,2017-01-07T06:00:00Z,29.4412,-92.0613,10.0,12.01,95.0,,'11111222,11111222,99999999' 
WAVCIS,ioos:station:WAVCIS:CSI03:3,2017-01-07T07:00:00Z,29.4412,-92.0613,10.0,11.0,98.0,,'11111222,11111222,99999999' 
WAVCIS,ioos:station:WAVCIS:CSI03:3,2017-01-07T08:00:00Z,29.4412,-92.0613,10.0,11.14,95.0,,'11111222,11111222,99999999' 
WAVCIS,ioos:station:WAVCIS:CSI03:3,2017-01-07T09:00:00Z,29.4412,-92.0613,10.0,10.81,94.0,,'11111222,11111222,99999999' 
WAVCIS,ioos:station:WAVCIS:CSI03:3,2017-01-07T10:00:00Z,29.4412,-92.0613,10.0,10.3,94.0,,'11111222,11111222,99999999' 
WAVCIS,ioos:station:WAVCIS:CSI03:3,2017-01-07T11:00:00Z,29.4412,-92.0613,10.0,10.9,107.0,,'11111222,11111222,99999999' 
WAVCIS,ioos:station:WAVCIS:CSI03:3,2017-01-07T12:00:00Z,29.4412,-92.0613,10.0,9.92,105.0,,'11111222,11111222,99999999' 
WAVCIS,ioos:station:WAVCIS:CSI03:3,2017-01-07T13:00:00Z,29.4412,-92.0613,10.0,9.26,100.0,,'11111222,11111222,99999999' 
WAVCIS,ioos:station:WAVCIS:CSI03:3,2017-01-07T14:00:00Z,29.4412,-92.0613,10.0,9.17,99.0,,'11111222,11111222,99999999' 
WAVCIS,ioos:station:WAVCIS:CSI03:3,2017-01-07T15:00:00Z,29.4412,-92.0613,10.0,9.13,100.0,,'11111222,11111222,99999999' 
WAVCIS,ioos:station:WAVCIS:CSI03:3,2017-01-07T16:00:00Z,29.4412,-92.0613,10.0,7.98,103.0,,'11111222,11111222,99999999' 
WAVCIS,ioos:station:WAVCIS:CSI03:3,2017-01-07T17:00:00Z,29.4412,-92.0613,10.0,7.56,97.0,,'11111222,11111222,99999999' 
WAVCIS,ioos:station:WAVCIS:CSI03:3,2017-01-07T18:00:00Z,29.4412,-92.0613,10.0,7.12,96.0,,'11111222,11111222,99999999' 
WAVCIS,ioos:station:WAVCIS:CSI03:3,2017-01-07T19:00:00Z,29.4412,-92.0613,10.0,7.57,98.0,,'11111222,11111222,99999999' 
WAVCIS,ioos:station:WAVCIS:CSI03:3,2017-01-07T20:00:00Z,29.4412,-92.0613,10.0,7.62,87.0,,'11111222,11111222,99999999' 
WAVCIS,ioos:station:WAVCIS:CSI03:3,2017-01-07T21:00:00Z,29.4412,-92.0613,10.0,7.99,91.0,,'11111222,11111222,99999999' 
WAVCIS,ioos:station:WAVCIS:CSI03:3,2017-01-07T22:00:00Z,29.4412,-92.0613,10.0,8.15,92.0,,'11111222,11111222,99999999' 
WAVCIS,ioos:station:WAVCIS:CSI03:3,2017-01-07T23:00:00Z,29.4412,-92.0613,10.0,9.22,100.0,,'11111222,11111222,99999999' 
WAVCIS,ioos:station:WAVCIS:CSI03:3,2017-01-08T00:00:00Z,29.4412,-92.0613,10.0,8.51,106.0,,'11111222,11111222,99999999' 
WAVCIS,ioos:station:WAVCIS:CSI03:3,2017-01-08T01:00:00Z,29.4412,-92.0613,10.0,8.48,108.0,,'11111222,11111222,99999999' 
WAVCIS,ioos:station:WAVCIS:CSI03:3,2017-01-08T02:00:00Z,29.4412,-92.0613,10.0,8.79,111.0,,'11111222,11111222,99999999' 
WAVCIS,ioos:station:WAVCIS:CSI03:3,2017-01-08T03:00:00Z,29.4412,-92.0613,10.0,8.03,114.0,,'11111222,11111222,99999999' 
WAVCIS,ioos:station:WAVCIS:CSI03:3,2017-01-08T04:00:00Z,29.4412,-92.0613,10.0,8.21,122.0,,'11111222,11111222,99999999' 
WAVCIS,ioos:station:WAVCIS:CSI03:3,2017-01-08T05:00:00Z,29.4412,-92.0613,10.0,8.27,122.0,,'11111222,11111222,99999999' 
WAVCIS,ioos:station:WAVCIS:CSI03:3,2017-01-08T06:00:00Z,29.4412,-92.0613,10.0,7.63,122.0,,'11111222,11111222,99999999' 
WAVCIS,ioos:station:WAVCIS:CSI03:3,2017-01-08T07:00:00Z,29.4412,-92.0613,10.0,8.31,127.0,,'11111222,11111222,99999999' 
WAVCIS,ioos:station:WAVCIS:CSI03:3,2017-01-08T08:00:00Z,29.4412,-92.0613,10.0,8.17,128.0,,'11111222,11111222,99999999' 
WAVCIS,ioos:station:WAVCIS:CSI03:3,2017-01-08T09:00:00Z,29.4412,-92.0613,10.0,6.804,125.0,,'11111222,11111222,99999999' 
WAVCIS,ioos:station:WAVCIS:CSI03:3,2017-01-08T10:00:00Z,29.4412,-92.0613,10.0,7.46,130.0,,'11111222,11111222,99999999' 
WAVCIS,ioos:station:WAVCIS:CSI03:3,2017-01-08T11:00:00Z,29.4412,-92.0613,10.0,7.67,133.0,,'11111222,11111222,99999999' 
WAVCIS,ioos:station:WAVCIS:CSI03:3,2017-01-08T12:00:00Z,29.4412,-92.0613,10.0,8.06,138.0,,'11111222,11111222,99999999' 
WAVCIS,ioos:station:WAVCIS:CSI03:3,2017-01-08T13:00:00Z,29.4412,-92.0613,10.0,8.36,139.0,,'11111222,11111222,99999999' 
WAVCIS,ioos:station:WAVCIS:CSI03:3,2017-01-08T14:00:00Z,29.4412,-92.0613,10.0,7.4,146.0,,'11111222,11111222,99999999' 
WAVCIS,ioos:station:WAVCIS:CSI03:3,2017-01-08T15:00:00Z,29.4412,-92.0613,10.0,7.8,148.0,,'11111222,11111222,99999999' 
WAVCIS,ioos:station:WAVCIS:CSI03:3,2017-01-08T16:00:00Z,29.4412,-92.0613,10.0,8.27,159.0,,'11111222,11111222,99999999' 
WAVCIS,ioos:station:WAVCIS:CSI03:3,2017-01-08T17:00:00Z,29.4412,-92.0613,10.0,6.893,169.0,,'11111222,11111222,99999999' 
WAVCIS,ioos:station:WAVCIS:CSI03:3,2017-01-08T18:00:00Z,29.4412,-92.0613,10.0,5.995,189.0,,'11111222,11111222,99999999' 
WAVCIS,ioos:station:WAVCIS:CSI03:3,2017-01-08T19:00:00Z,29.4412,-92.0613,10.0,6.077,192.0,,'11111222,11111222,99999999' 
WAVCIS,ioos:station:WAVCIS:CSI03:3,2017-01-08T20:00:00Z,29.4412,-92.0613,10.0,4.943,187.0,,'11111222,11111222,99999999' 
WAVCIS,ioos:station:WAVCIS:CSI03:3,2017-01-08T21:00:00Z,29.4412,-92.0613,10.0,5.137,193.0,,'11111222,11111222,99999999' 
WAVCIS,ioos:station:WAVCIS:CSI03:3,2017-01-08T22:00:00Z,29.4412,-92.0613,10.0,3.568,169.0,,'11111222,11111222,99999999' 
WAVCIS,ioos:station:WAVCIS:CSI03:3,2017-01-08T23:00:00Z,29.4412,-92.0613,10.0,5.394,160.0,,'11111222,11111222,99999999' 
WAVCIS,ioos:station:WAVCIS:CSI03:3,2017-01-09T00:00:00Z,29.4412,-92.0613,10.0,5.324,173.0,,'11111222,11111222,99999999' 
WAVCIS,ioos:station:WAVCIS:CSI03:3,2017-01-09T01:00:00Z,29.4412,-92.0613,10.0,4.909,170.0,,'11111222,11111222,99999999' 
WAVCIS,ioos:station:WAVCIS:CSI03:3,2017-01-09T02:00:00Z,29.4412,-92.0613,10.0,5.42,168.0,,'11111222,11111222,99999999' 
WAVCIS,ioos:station:WAVCIS:CSI03:3,2017-01-09T03:00:00Z,29.4412,-92.0613,10.0,4.463,167.0,,'11111222,11111222,99999999' 
WAVCIS,ioos:station:WAVCIS:CSI03:3,2017-01-09T04:00:00Z,29.4412,-92.0613,10.0,5.753,151.0,,'11111222,11111222,99999999' 
WAVCIS,ioos:station:WAVCIS:CSI03:3,2017-01-09T05:00:00Z,29.4412,-92.0613,10.0,6.53,170.0,,'11111222,11111222,99999999' 